Location: Poughquag
(41.6090°N, 73.6820°W)
Time: 03:19:44
(UTC-04:00)

Transit 4A - Pass Details

Date: 01 June 2020
Orbit: 866 x 978 km, 66.8° (Epoch: 06 July)

Event Time Altitude Azimuth Distance (km) Brightness Sun altitude
Rises 10:41:06 0° 332° (NNW) 3,566 10.7 56.3°
Reaches altitude 10° 10:43:38 10° 335° (NNW) 2,637 10.1 56.7°
Maximum altitude 10:49:45 66° 57° (ENE) 1,033 9.5 57.8°
Drops below altitude 10° 10:56:01 10° 140° (SE) 2,693 11.0 58.8°
Sets 10:58:36 0° 143° (SE) 3,647 11.4 59.2°
